CW7563 Weather Reports


Display with metric or nautical units.
time (UTC)temp
F
wind
direction
speed
MPH
gust
MPH
rain 1hr
in
rain 24hr
in
rain mn
in
humidity
%
barometer
mb
20260507201307 64 288 6.0 12.0 0.00 0.00 0.00 56 1018.4
20260507200806 64 1 5.0 8.0 0.00 0.00 0.00 57 1018.3
20260507195307 63 279 4.0 10.0 0.00 0.00 0.00 58 1018.5
20260507194806 63 296 5.0 7.0 0.00 0.00 0.00 58 1018.5
20260507194306 64 234 3.0 7.0 0.00 0.00 0.00 57 1018.6
20260507193807 64 277 5.0 9.0 0.00 0.00 0.00 58 1018.6
20260507193306 63 244 2.0 5.0 0.00 0.00 0.00 60 1018.7
20260507192806 62 91 2.0 5.0 0.00 0.00 0.00 60 1018.7
20260507191806 62 176 3.0 6.0 0.00 0.00 0.00 60 1019.0
20260507191307 62 16 5.0 8.0 0.00 0.00 0.00 60 1019.0
20260507190806 62 190 2.0 6.0 0.00 0.00 0.00 61 1019.0
20260507190306 62 304 3.0 6.0 0.00 0.00 0.00 61 1019.1
20260507185806 62 205 2.0 3.0 0.00 0.00 0.00 61 1019.1
20260507184806 60 256 3.0 7.0 0.00 0.00 0.00 63 1019.3
20260507184306 61 268 5.0 8.0 0.00 0.00 0.00 62 1019.4
20260507183306 60 257 2.0 7.0 0.00 0.00 0.00 63 1019.4
20260507182806 60 288 2.0 7.0 0.00 0.00 0.00 64 1019.5
20260507182307 60 293 3.0 8.0 0.00 0.00 0.00 64 1019.5
20260507181805 59 102 2.0 7.0 0.00 0.00 0.00 65 1019.6
20260507180806 58 46 4.0 9.0 0.00 0.00 0.00 66 1019.7
20260507180306 58 315 2.0 8.0 0.00 0.00 0.00 67 1019.7
20260507175806 58 292 2.0 6.0 0.00 0.00 0.00 69 1019.8
20260507175307 58 320 3.0 8.0 0.00 0.00 0.00 67 1019.9
20260507174806 57 225 1.0 3.0 0.00 0.00 0.00 68 1019.9
20260507173806 57 290 3.0 8.0 0.00 0.00 0.00 69 1020.0
20260507173305 57 302 2.0 8.0 0.00 0.00 0.00 69 1020.1
20260507172806 56 297 4.0 9.0 0.00 0.00 0.00 70 1020.1
20260507171806 56 305 5.0 8.0 0.00 0.00 0.00 71 1020.1
20260507171306 56 277 3.0 7.0 0.00 0.00 0.00 71 1020.1
20260507170307 56 328 5.0 9.0 0.00 0.00 0.00 71 1020.1
20260507165805 56 19 4.0 8.0 0.00 0.00 0.00 73 1020.2
20260507165307 55 299 5.0 8.0 0.00 0.00 0.00 72 1020.2
20260507164806 55 43 2.0 8.0 0.00 0.00 0.00 72 1020.2
20260507164306 55 82 3.0 9.0 0.00 0.00 0.00 72 1020.1
20260507163806 55 64 2.0 5.0 0.00 0.00 0.00 73 1020.2
20260507163306 55 120 2.0 5.0 0.00 0.00 0.00 73 1020.2
20260507162307 54 41 3.0 5.0 0.00 0.00 0.00 74 1020.1
20260507161806 54 13 3.0 6.0 0.00 0.00 0.00 75 1020.1
20260507161306 54 30 2.0 5.0 0.00 0.00 0.00 74 1020.1
20260507160806 54 305 3.0 6.0 0.00 0.00 0.00 75 1020.2
20260507160306 54 299 1.0 3.0 0.00 0.00 0.00 74 1020.1
20260507155806 54 294 1.0 3.0 0.00 0.00 0.00 75 1020.0
20260507155307 54 271 2.0 3.0 0.00 0.00 0.00 74 1020.1
20260507154805 54 211 1.0 5.0 0.00 0.00 0.00 74 1020.1
20260507154306 54 288 2.0 3.0 0.00 0.00 0.00 75 1020.1
20260507153806 53 225 1.0 8.0 0.00 0.00 0.00 76 1020.1
20260507153306 53 303 3.0 5.0 0.00 0.00 0.00 76 1020.1
20260507152807 53 237 2.0 3.0 0.00 0.00 0.00 76 1020.1
20260507152307 53 288 2.0 6.0 0.00 0.00 0.00 77 1020.1
20260507151806 53 306 2.0 7.0 0.00 0.00 0.00 76 1020.1
20260507151306 53 291 3.0 7.0 0.00 0.00 0.00 76 1020.1
20260507150807 53 231 1.0 3.0 0.00 0.00 0.00 77 1020.2
20260507150306 52 293 2.0 3.0 0.00 0.00 0.00 76 1020.1
20260507145806 53 265 2.0 3.0 0.00 0.00 0.00 76 1020.2
20260507145307 53 255 2.0 5.0 0.00 0.00 0.00 76 1020.2
20260507144305 52 312 2.0 6.0 0.00 0.00 0.00 77 1020.2
20260507143306 52 271 1.0 3.0 0.00 0.00 0.00 77 1020.2
20260507142307 52 252 2.0 5.0 0.00 0.00 0.00 77 1020.2
20260507141806 52 262 1.0 3.0 0.00 0.00 0.00 77 1020.1
20260507141306 52 236 1.0 3.0 0.00 0.00 0.00 77 1020.0
20260507140806 52 244 2.0 3.0 0.00 0.00 0.00 77 1020.0
20260507140306 52 288 1.0 3.0 0.00 0.00 0.00 77 1020.0
20260507135806 52 293 2.0 3.0 0.00 0.00 0.00 77 1019.9
20260507134806 52 283 1.0 3.0 0.00 0.00 0.00 77 1019.8
20260507134306 52 266 2.0 3.0 0.00 0.00 0.00 77 1019.9
20260507133806 52 267 2.0 3.0 0.00 0.00 0.00 77 1019.7
20260507133305 52 273 1.0 3.0 0.00 0.00 0.00 77 1019.7
20260507131805 52 269 1.0 2.0 0.00 0.00 0.00 77 1019.6
20260507131305 52 269 2.0 3.0 0.00 0.00 0.00 77 1019.7
20260507130805 52 254 2.0 3.0 0.00 0.00 0.00 77 1019.7
20260507130306 52 287 1.0 3.0 0.00 0.00 0.00 77 1019.7
20260507125805 52 286 2.0 3.0 0.00 0.00 0.00 77 1019.7
20260507125307 52 256 1.0 3.0 0.00 0.00 0.00 77 1019.7
20260507124806 52 254 1.0 3.0 0.00 0.00 0.00 77 1019.7
20260507124305 52 251 1.0 3.0 0.00 0.00 0.00 77 1019.8
20260507123805 52 300 2.0 6.0 0.00 0.00 0.00 77 1019.8
20260507123306 52 265 2.0 3.0 0.00 0.00 0.00 76 1019.7
20260507122307 53 295 1.0 3.0 0.00 0.00 0.00 76 1019.9
20260507121806 53 289 2.0 3.0 0.00 0.00 0.00 76 1019.9
20260507121306 53 291 2.0 3.0 0.00 0.00 0.00 76 1019.8
20260507120805 53 292 2.0 6.0 0.00 0.00 0.00 76 1019.8
20260507120306 53 290 1.0 2.0 0.00 0.00 0.00 76 1019.9
20260507115805 53 269 1.0 3.0 0.00 0.00 0.00 76 1020.0
20260507115307 53 294 1.0 3.0 0.00 0.00 0.00 76 1020.0
20260507114805 53 282 0.0 2.0 0.00 0.00 0.00 75 1020.0
20260507114306 53 281 1.0 3.0 0.00 0.00 0.00 75 1020.0
20260507113806 53 241 2.0 3.0 0.00 0.00 0.00 75 1020.0
20260507113306 53 279 1.0 3.0 0.00 0.00 0.00 75 1020.0
20260507112806 53 276 2.0 3.0 0.00 0.00 0.00 74 1020.1
20260507111806 54 262 2.0 3.0 0.00 0.00 0.00 74 1020.1
20260507111306 54 286 2.0 3.0 0.00 0.00 0.00 74 1020.2
20260507110305 54 276 2.0 3.0 0.00 0.00 0.00 74 1020.1
20260507105307 54 294 1.0 2.0 0.00 0.00 0.00 74 1020.2
20260507104806 54 294 1.0 3.0 0.00 0.00 0.00 74 1020.3
20260507103805 54 333 1.0 2.0 0.00 0.00 0.00 74 1020.2
20260507103305 54 304 2.0 3.0 0.00 0.00 0.00 74 1020.3
20260507102805 54 287 2.0 5.0 0.00 0.00 0.00 74 1020.4
20260507101805 54 291 0.0 3.0 0.00 0.00 0.00 74 1020.4
20260507101306 54 306 1.0 3.0 0.00 0.00 0.00 74 1020.4
20260507100805 54 316 2.0 5.0 0.00 0.00 0.00 74 1020.4
20260507100306 54 287 1.0 5.0 0.00 0.00 0.00 74 1020.4
20260507095306 54 345 1.0 3.0 0.00 0.00 0.00 74 1020.5
20260507094305 54 335 2.0 6.0 0.00 0.00 0.00 74 1020.6
20260507093306 54 307 1.0 5.0 0.00 0.00 0.00 74 1020.7
20260507092805 54 329 2.0 5.0 0.00 0.00 0.00 74 1020.7
20260507092307 55 288 3.0 6.0 0.00 0.00 0.00 74 1020.8
20260507091805 55 310 1.0 3.0 0.00 0.00 0.00 75 1020.9
20260507091305 55 302 2.0 7.0 0.00 0.00 0.00 75 1020.9
20260507090805 55 294 3.0 6.0 0.00 0.00 0.00 75 1020.9
20260507090306 55 280 3.0 6.0 0.00 0.00 0.00 75 1020.9
20260507085805 55 316 5.0 8.0 0.00 0.00 0.00 75 1021.0
20260507085306 55 291 3.0 7.0 0.00 0.00 0.00 76 1021.0
20260507084805 55 9 1.0 5.0 0.00 0.00 0.00 77 1020.9
20260507084305 55 296 2.0 3.0 0.00 0.00 0.00 77 1020.8
20260507083805 55 355 2.0 3.0 0.00 0.00 0.00 78 1020.8
20260507082805 55 344 1.0 2.0 0.00 0.00 0.00 79 1020.9
20260507081305 55 5 3.0 5.0 0.00 0.00 0.00 79 1020.7
20260507080305 55 5 3.0 5.0 0.00 0.00 0.00 79 1020.8
20260507075805 55 10 2.0 5.0 0.00 0.00 0.00 79 1020.9
20260507075307 55 7 3.0 5.0 0.00 0.00 0.00 79 1020.8
20260507074805 55 3 2.0 3.0 0.00 0.00 0.00 79 1020.8
20260507073804 55 11 2.0 3.0 0.00 0.00 0.00 79 1020.9
20260507073305 55 9 2.0 3.0 0.00 0.00 0.00 79 1020.9
20260507072805 55 5 1.0 3.0 0.00 0.00 0.00 79 1020.8
20260507072307 56 358 2.0 5.0 0.00 0.00 0.00 79 1020.7
20260507071805 56 3 2.0 3.0 0.00 0.00 0.00 79 1020.7
20260507071305 56 324 2.0 5.0 0.00 0.00 0.00 79 1020.6
20260507070818 56 67 1.0 3.0 0.00 0.00 0.00 79 1020.7
20260507070305 56 15 2.0 3.0 0.00 0.00 0.00 79 1020.6
20260507065805 56 17 3.0 5.0 0.00 0.00 0.00 79 1020.7
20260507065306 56 4 3.0 3.0 0.00 0.00 0.00 79 1020.7
20260507064805 56 5 1.0 3.0 0.00 0.00 0.00 79 1020.7
20260507063805 56 295 2.0 3.0 0.00 0.00 0.00 79 1020.7
20260507063305 56 354 2.0 3.0 0.00 0.00 0.00 80 1020.7
20260507062804 56 7 2.0 3.0 0.00 0.00 0.00 79 1020.6
20260507062306 56 337 2.0 3.0 0.00 0.00 0.00 79 1020.7
20260507061805 56 5 3.0 6.0 0.00 0.00 0.00 79 1020.6
20260507061304 56 35 3.0 8.0 0.00 0.00 0.00 79 1020.7
20260507060805 57 3 3.0 6.0 0.00 0.00 0.00 79 1020.6
20260507060304 57 38 2.0 5.0 0.00 0.00 0.00 79 1020.7
20260507055805 57 5 2.0 8.0 0.00 0.00 0.00 79 1020.7
20260507054805 57 47 3.0 8.0 0.00 0.00 0.00 78 1020.6
20260507054304 57 8 3.0 6.0 0.00 0.00 0.00 78 1020.6
20260507053805 57 350 3.0 6.0 0.00 0.00 0.00 78 1020.6
20260507053304 57 356 3.0 5.0 0.00 0.00 0.00 78 1020.6
20260507052805 57 355 3.0 6.0 0.00 0.00 0.00 78 1020.5
20260507052306 57 45 3.0 5.0 0.00 0.00 0.00 78 1020.5
20260507051804 57 8 2.0 5.0 0.00 0.00 0.00 78 1020.5
20260507051305 57 349 5.0 8.0 0.00 0.00 0.00 78 1020.5
20260507050805 57 344 3.0 8.0 0.00 0.00 0.00 77 1020.6
20260507045805 58 343 3.0 7.0 0.00 0.00 0.00 77 1020.6
20260507045306 58 51 4.0 8.0 0.00 0.00 0.00 77 1020.6
20260507044804 58 18 4.0 9.0 0.00 0.00 0.00 77 1020.6
20260507044305 58 359 4.0 8.0 0.00 0.00 0.00 77 1020.6
20260507043805 58 350 5.0 9.0 0.00 0.00 0.00 77 1020.5
20260507043304 58 351 3.0 6.0 0.00 0.00 0.00 77 1020.4
20260507042805 58 7 7.0 12.0 0.00 0.00 0.00 76 1020.4
20260507042307 59 13 2.0 9.0 0.00 0.00 0.00 76 1020.4
20260507041805 59 17 3.0 7.0 0.00 0.00 0.00 76 1020.3
20260507041305 59 9 4.0 7.0 0.00 0.00 0.00 76 1020.3
20260507040805 59 326 2.0 8.0 0.00 0.00 0.00 76 1020.2
20260507040304 59 28 3.0 10.0 0.00 0.00 0.00 76 1020.1
20260507034805 60 350 3.0 10.0 0.00 0.00 0.00 76 1019.9
20260507034304 60 326 3.0 8.0 0.00 0.00 0.00 76 1019.8
20260507033804 60 11 4.0 10.0 0.00 0.00 0.00 76 1019.6
20260507033305 60 6 5.0 8.0 0.00 0.00 0.00 75 1019.5
20260507032807 61 346 3.0 10.0 0.00 0.00 0.00 76 1019.5
20260507032308 61 12 2.0 7.0 0.00 0.00 0.00 76 1019.5
20260507031807 61 41 2.0 3.0 0.00 0.00 0.00 76 1019.3
20260507030808 61 46 1.0 3.0 0.00 0.00 0.00 75 1019.2
20260507030307 61 93 1.0 3.0 0.00 0.00 0.00 75 1019.3
20260507025807 61 69 2.0 3.0 0.00 0.00 0.00 75 1019.3
20260507025307 61 47 2.0 3.0 0.00 0.00 0.00 74 1019.2
20260507024807 62 38 2.0 6.0 0.00 0.00 0.00 74 1019.1
20260507024307 62 29 3.0 6.0 0.00 0.00 0.00 73 1019.0
20260507023808 62 24 3.0 5.0 0.00 0.00 0.00 73 1019.0
20260507022807 63 19 1.0 5.0 0.00 0.00 0.00 72 1018.9
20260507022307 63 353 3.0 6.0 0.00 0.00 0.00 71 1018.9
20260507021807 64 350 2.0 5.0 0.00 0.00 0.00 71 1018.9
20260507021308 64 357 2.0 5.0 0.00 0.00 0.00 71 1018.9
20260507020807 64 8 2.0 7.0 0.00 0.00 0.00 70 1018.8
20260507020307 64 18 3.0 6.0 0.00 0.00 0.00 70 1018.8
20260507015307 65 336 5.0 12.0 0.00 0.00 0.00 70 1019.0
20260507014807 65 1 6.0 12.0 0.00 0.00 0.00 69 1019.0
20260507014307 66 1 5.0 8.0 0.00 0.00 0.00 68 1019.0
20260507013807 66 3 2.0 9.0 0.00 0.00 0.00 69 1019.0
20260507013306 66 0 3.0 8.0 0.00 0.00 0.00 69 1018.8
20260507012807 66 344 5.0 9.0 0.00 0.00 0.00 69 1018.9
20260507012307 67 65 4.0 9.0 0.00 0.00 0.00 69 1018.9
20260507011807 67 10 2.0 7.0 0.00 0.00 0.00 69 1018.8
20260507010807 67 20 2.0 8.0 0.00 0.00 0.00 69 1018.8
20260507010308 67 62 4.0 8.0 0.00 0.00 0.00 69 1018.8
20260507005807 68 29 4.0 9.0 0.00 0.00 0.00 68 1018.8
20260507005307 68 66 5.0 9.0 0.00 0.00 0.00 67 1018.7
20260507004807 68 34 3.0 7.0 0.00 0.00 0.00 66 1018.6
20260507004307 69 20 3.0 6.0 0.00 0.00 0.00 66 1018.7
20260507003807 70 358 3.0 5.0 0.00 0.00 0.00 64 1018.6
20260507003307 71 68 1.0 3.0 0.00 0.00 0.00 64 1018.6
20260507002807 71 134 2.0 3.0 0.00 0.00 0.00 64 1018.5
20260507002306 71 207 1.0 7.0 0.00 0.00 0.00 64 1018.6
20260507001807 71 277 3.0 8.0 0.00 0.00 0.00 63 1018.6
20260507001307 71 201 3.0 7.0 0.00 0.00 0.00 64 1018.6
20260507000806 70 177 1.0 7.0 0.00 0.00 0.00 65 1018.6
20260507000307 69 128 4.0 7.0 0.00 0.00 0.00 65 1018.6
20260506235807 70 142 2.0 7.0 0.00 0.00 0.00 64 1018.6
20260506235307 70 216 3.0 7.0 0.00 0.00 0.00 65 1018.5
20260506234807 70 250 1.0 2.0 0.00 0.00 0.00 65 1018.5
20260506234307 70 132 2.0 6.0 0.00 0.00 0.00 66 1018.5
20260506233807 69 37 4.0 7.0 0.00 0.00 0.00 66 1018.4
20260506232807 69 138 4.0 9.0 0.00 0.00 0.00 67 1018.6
20260506232307 69 104 2.0 7.0 0.00 0.00 0.00 67 1018.6
20260506231806 68 135 7.0 12.0 0.00 0.00 0.00 66 1018.7
20260506231307 69 177 3.0 6.0 0.00 0.00 0.00 67 1018.7
20260506230807 68 193 2.0 8.0 0.00 0.00 0.00 67 1018.8
20260506230307 68 149 4.0 7.0 0.00 0.00 0.00 67 1018.9
20260506225806 68 198 5.0 8.0 0.00 0.00 0.00 67 1019.0
20260506225306 68 119 4.0 9.0 0.00 0.00 0.00 68 1019.0
20260506224807 68 202 5.0 9.0 0.00 0.00 0.00 68 1019.0
20260506224307 68 237 4.0 12.0 0.00 0.00 0.00 68 1019.0
20260506223806 68 111 1.0 3.0 0.00 0.00 0.00 70 1019.1
20260506223307 67 141 2.0 6.0 0.00 0.00 0.00 71 1019.2
20260506222807 67 207 3.0 6.0 0.00 0.00 0.00 69 1019.1
20260506222307 67 133 2.0 3.0 0.00 0.00 0.00 70 1019.2
20260506221807 67 236 2.0 3.0 0.00 0.00 0.00 69 1019.3
20260506221307 66 148 3.0 5.0 0.00 0.00 0.00 69 1019.4
20260506220807 66 194 2.0 6.0 0.00 0.00 0.00 69 1019.4
20260506220307 66 269 2.0 3.0 0.00 0.00 0.00 69 1019.5
20260506215807 67 134 3.0 8.0 0.00 0.00 0.00 68 1019.5
20260506215307 67 207 3.0 6.0 0.00 0.00 0.00 67 1019.4
20260506214806 68 203 3.0 8.0 0.00 0.00 0.00 67 1019.3
20260506214306 68 224 3.0 8.0 0.00 0.00 0.00 68 1019.3
20260506213807 67 216 2.0 7.0 0.00 0.00 0.00 68 1019.4
20260506213307 66 287 3.0 8.0 0.00 0.00 0.00 69 1019.5
20260506212807 66 167 3.0 14.0 0.00 0.00 0.00 70 1019.6
20260506211307 65 150 3.0 8.0 0.00 0.00 0.00 71 1019.8
20260506210307 66 126 4.0 9.0 0.00 0.00 0.00 70 1019.9
20260506205807 65 199 2.0 3.0 0.00 0.00 0.00 71 1019.9
20260506204807 65 137 5.0 9.0 0.00 0.00 0.00 71 1019.9
20260506204307 66 184 5.0 12.0 0.00 0.00 0.00 70 1019.9
20260506203806 65 142 7.0 12.0 0.00 0.00 0.00 71 1019.8
20260506202807 66 233 5.0 10.0 0.00 0.00 0.00 71 1019.8
20260506202306 66 185 4.0 9.0 0.00 0.00 0.00 72 1019.8